Scappoose, OR

10:01 AM PDT on April 20, 2018 (GMT -0700)
Scappoose Industrial

Weather History for KSPB - August, 2013

Change the Weather History Date:

Friday, August 9, 2013

  Actual Average Record
Temperature  
Mean Temperature 68 °F -  
Max Temperature 80 °F - 100 °F (2004)
Min Temperature 55 °F - 50 °F (2005)
Degree Days  
Heating Degree Days 0    
Month to date heating degree days 4  
Since 1 June heating degree days 124  
Since 1 July heating degree days 22  
Cooling Degree Days 3    
Month to date cooling degree days 42  
Year to date cooling degree days 228  
Since 1 June cooling degree days 220  
Growing Degree Days 18 (Base 50)    
Moisture  
Dew Point 55 °F    
Average Humidity 63    
Maximum Humidity 84    
Minimum Humidity 42    
Precipitation  
Precipitation 0.01 in - 0.16 in (2008)
Month to date precipitation 0.01  
Year to date precipitation 13.90  
Sea Level Pressure  
Sea Level Pressure 29.91 in    
Wind  
Wind Speed 6 mph (NNE)    
Max Wind Speed 15 mph    
Max Gust Speed 20 mph    
Visibility 10 miles    
Events Rain    
T = Trace of Precipitation, MM = Missing Value Source: NWS Daily Summary

Daily Weather History Graph

Daily Weather History Graph

Search for Another Location

Airport or City:

Astronomy

Aug. 09, 2013 Rise Set
Actual Time 6:04 AM PDT 8:28 PM PDT
Civil Twilight 5:31 AM PDT 9:01 PM PDT
Nautical Twilight 4:49 AM PDT 9:42 PM PDT
Astronomical Twilight 4:02 AM PDT 10:29 PM PDT
Moon 9:08 AM PDT (8/9) 9:26 PM PDT (8/9)
Length of Visible Light 15h 30m
Length of Day
14h 23m
Waxing Crescent, 8% of the Moon is Illuminated
Aug 9
Waxing Crescent
Aug 14
First Quarter
Aug 20
Full
Aug 28
Last Quarter
Sep 5
New

Hourly Weather History & Observations

Time (PDT) Temp. Heat Index Dew Point Humidity Pressure Visibility Wind Dir Wind Speed Gust Speed Precip Events Conditions
12:53 AM 63.0 °F - 51.1 °F 65% 29.94 in 10.0 mi Calm Calm - N/A   Clear
1:53 AM 57.9 °F - 50.0 °F 75% 29.94 in 10.0 mi East 3.5 mph - N/A   Clear
2:53 AM 60.1 °F - 51.1 °F 72% 29.93 in 10.0 mi ENE 4.6 mph - N/A   Clear
3:53 AM 60.1 °F - 51.1 °F 72% 29.93 in 10.0 mi North 3.5 mph - N/A   Clear
4:53 AM 59.0 °F - 51.1 °F 75% 29.92 in 10.0 mi North 5.8 mph - N/A   Clear
5:53 AM 55.9 °F - 50.0 °F 80% 29.93 in 10.0 mi ENE 3.5 mph - N/A   Clear
6:53 AM 57.0 °F - 51.1 °F 81% 29.93 in 10.0 mi NNW 3.5 mph - N/A   Clear
7:53 AM 59.0 °F - 52.0 °F 78% 29.95 in 10.0 mi NNE 4.6 mph - N/A   Clear
8:53 AM 62.1 °F - 53.1 °F 72% 29.94 in 10.0 mi NNE 4.6 mph - N/A   Clear
9:53 AM 68.0 °F - 55.0 °F 63% 29.92 in 10.0 mi NE 6.9 mph - N/A   Clear
10:53 AM 71.1 °F - 55.9 °F 59% 29.91 in 10.0 mi NNE 9.2 mph - N/A   Clear
11:53 AM 72.0 °F - 57.0 °F 59% 29.91 in 10.0 mi NNE 4.6 mph - N/A   Clear
12:53 PM 69.1 °F - 57.0 °F 65% 29.91 in 10.0 mi SE 6.9 mph - N/A   Partly Cloudy
1:53 PM 66.9 °F - 60.1 °F 79% 29.91 in 10.0 mi Calm Calm - 0.01 in Rain Light Rain
2:53 PM 71.1 °F - 62.1 °F 73% 29.90 in 10.0 mi NW 4.6 mph - 0.00 in   Mostly Cloudy
3:53 PM 75.0 °F - 59.0 °F 57% 29.87 in 10.0 mi NNE 9.2 mph - N/A   Clear
4:53 PM 79.0 °F - 55.9 °F 45% 29.85 in 10.0 mi North 12.7 mph - N/A   Clear
5:53 PM 80.1 °F 80.1 °F 55.0 °F 42% 29.84 in 10.0 mi North 11.5 mph 19.6 mph N/A   Clear
6:53 PM 80.1 °F 80.2 °F 55.9 °F 43% 29.85 in 10.0 mi North 6.9 mph - N/A   Clear
7:53 PM 73.9 °F - 59.0 °F 59% 29.88 in 10.0 mi ENE 3.5 mph - N/A   Clear
8:53 PM 69.1 °F - 60.1 °F 73% 29.91 in 10.0 mi SE 5.8 mph - N/A   Clear
9:53 PM 69.1 °F - 59.0 °F 70% 29.89 in 10.0 mi North 6.9 mph - N/A   Clear
10:53 PM 66.0 °F - 57.9 °F 75% 29.92 in 10.0 mi WNW 6.9 mph - N/A   Clear
11:53 PM 64.9 °F - 59.0 °F 81% 29.88 in 10.0 mi NNE 3.5 mph - 0.00 in   Partly Cloudy